Weather History for Fort Smith, AR

Change the Weather History Date:

Monday, November 4, 2013

  Actual Average Record
Temperature  
Mean Temperature 56 °F 56 °F  
Max Temperature 58 °F 68 °F 86 °F (1987)
Min Temperature 53 °F 45 °F 20 °F (1991)
Degree Days  
Heating Degree Days 9 9  
Month to date heating degree days 42 35  
Since 1 July heating degree days 177 189  
Growing Degree Days 5 (Base 50)    
Moisture  
Dew Point 49 °F    
Average Humidity 77    
Maximum Humidity 93    
Minimum Humidity 61    
Precipitation  
Precipitation 0.22 in 0.15 in 3.19 in (1994)
Month to date precipitation 0.22 0.59  
Year to date precipitation 40.77 38.32  
Sea Level Pressure  
Sea Level Pressure 30.13 in    
Wind  
Wind Speed 6 mph (East)    
Max Wind Speed 13 mph    
Max Gust Speed 17 mph    
Visibility 8 miles    
Events Rain    
T = Trace of Precipitation, MM = Missing Value Source: NWS Daily Summary

Daily Weather History Graph

Daily Weather History Graph

Search for Another Location

Airport:

Trip Planner

Search our weather history database for the weather conditions in past years. The results will help you decide how hot, cold, wet, or windy it might be!

Date:

Astronomy

Nov. 04, 2013 Rise Set
Actual Time 6:42 AM CST 5:19 PM CST
Civil Twilight 6:15 AM CST 5:45 PM CST
Nautical Twilight 5:45 AM CST 6:16 PM CST
Astronomical Twilight 5:15 AM CST 6:45 PM CST
Moon 7:51 AM CST (11/4) 6:27 PM CST (11/4)
Length of Visible Light 11h 30m
Length of Day
10h 37m
New Moon, 2% of the Moon is Illuminated
Nov 4
New Moon
Nov 9
First Quarter
Nov 17
Full
Nov 25
Last Quarter
Dec 2
New

Hourly Weather History & Observations

Time (CST) Temp. Dew Point Humidity Pressure Visibility Wind Dir Wind Speed Gust Speed Precip Events Conditions
12:53 AM 53.1 °F 42.1 °F 66% 30.10 in 10.0 mi East 5.8 mph - N/A   Clear
1:53 AM 54.0 °F 42.1 °F 64% 30.09 in 10.0 mi SE 8.1 mph - N/A   Partly Cloudy
2:53 AM 53.1 °F 43.0 °F 69% 30.08 in 10.0 mi East 5.8 mph - 0.00 in Rain Light Rain
3:53 AM 54.0 °F 41.0 °F 62% 30.08 in 10.0 mi ESE 6.9 mph - 0.00 in   Clear
4:53 AM 54.0 °F 41.0 °F 62% 30.09 in 10.0 mi SE 6.9 mph - N/A   Mostly Cloudy
5:53 AM 53.1 °F 43.0 °F 69% 30.08 in 10.0 mi East 6.9 mph - N/A   Mostly Cloudy
6:53 AM 54.0 °F 43.0 °F 66% 30.08 in 10.0 mi East 6.9 mph - N/A   Mostly Cloudy
7:53 AM 55.9 °F 43.0 °F 62% 30.09 in 10.0 mi East 5.8 mph - N/A   Mostly Cloudy
8:53 AM 55.9 °F 44.1 °F 64% 30.12 in 10.0 mi SE 6.9 mph - N/A   Mostly Cloudy
9:53 AM 57.0 °F 44.1 °F 62% 30.12 in 10.0 mi ESE 8.1 mph - N/A   Overcast
10:53 AM 57.9 °F 45.0 °F 62% 30.14 in 10.0 mi ESE 5.8 mph - 0.00 in   Overcast
11:53 AM 57.9 °F 46.9 °F 67% 30.12 in 10.0 mi SE 4.6 mph - N/A   Overcast
12:53 PM 57.0 °F 48.0 °F 72% 30.12 in 5.0 mi SE 8.1 mph - 0.00 in Rain Light Rain
1:53 PM 55.0 °F 51.1 °F 86% 30.13 in 8.0 mi East 4.6 mph - 0.02 in Rain Light Rain
2:07 PM 55.4 °F 51.8 °F 88% 30.12 in 10.0 mi ESE 6.9 mph - 0.00 in   Overcast
2:53 PM 55.0 °F 51.1 °F 86% 30.11 in 10.0 mi ESE 6.9 mph - 0.00 in   Overcast
3:00 PM 55.4 °F 51.8 °F 88% 30.12 in 10.0 mi ESE 4.6 mph - N/A   Overcast
3:53 PM 55.9 °F 51.1 °F 84% 30.12 in 10.0 mi ESE 5.8 mph - 0.00 in   Overcast
4:53 PM 55.0 °F 52.0 °F 89% 30.13 in 10.0 mi East 5.8 mph - 0.00 in Rain Light Rain
5:53 PM 55.0 °F 53.1 °F 93% 30.14 in 6.0 mi East 4.6 mph - 0.05 in Rain Light Rain
6:06 PM 55.4 °F 53.6 °F 94% 30.15 in 6.0 mi East 4.6 mph - 0.01 in Rain Light Rain
6:18 PM 55.4 °F 53.6 °F 94% 30.15 in 7.0 mi East 6.9 mph - 0.01 in Rain Light Rain
6:53 PM 55.0 °F 53.1 °F 93% 30.16 in 7.0 mi ENE 8.1 mph - 0.04 in Rain Light Rain
7:06 PM 55.4 °F 53.6 °F 94% 30.16 in 8.0 mi East 8.1 mph - 0.01 in Rain Light Rain
7:32 PM 55.4 °F 53.6 °F 94% 30.16 in 9.0 mi East 5.8 mph - 0.01 in Rain Light Rain
7:44 PM 53.6 °F 53.6 °F 100% 30.17 in 8.0 mi East 6.9 mph - 0.02 in Rain Light Rain
7:53 PM 54.0 °F 52.0 °F 93% 30.17 in 7.0 mi East 4.6 mph - 0.02 in Rain Light Rain
8:53 PM 55.0 °F 53.1 °F 93% 30.17 in 8.0 mi East 6.9 mph - 0.06 in Rain Light Rain
9:46 PM 55.4 °F 53.6 °F 94% 30.18 in 7.0 mi ENE 8.1 mph - 0.01 in Rain Light Rain
9:53 PM 55.0 °F 53.1 °F 93% 30.18 in 7.0 mi ENE 6.9 mph - 0.02 in Rain Light Rain
10:53 PM 55.0 °F 53.1 °F 93% 30.17 in 6.0 mi ENE 8.1 mph - 0.01 in Rain Light Rain
11:53 PM 55.0 °F 53.1 °F 93% 30.16 in 4.0 mi East 5.8 mph - 0.00 in   Overcast